User: anonymous   Login
Location: Unspecified
(0.0000°N, 0.0000°E)
Time: 01:30:58
(UTC+00:00)
Language:

Himawari - Orbit

View from above orbital plane
View from above orbital plane
View from above satellite
View from above satellite

Ground track
Ground track

The orbit data is extracted from the following two-line orbital elements,

1 10143U 77065A   17117.29950036 -.00000286 +00000-0 +00000-0 0  9992
2 10143 013.4949 327.8119 0015780 155.2527 359.5076 00.99253547088094
Epoch (UTC): 27 April 2017 07:11:16
Eccentricity: 0.0015780
inclination: 13.4949°
perigee height: 36007 km
apogee height: 36141 km
right ascension of ascending node: 327.8119°
argument of perigee: 155.2527°
revolutions per day: 0.99253547
mean anomaly at epoch: 359.5076°
orbit number at epoch: 8809

The dashed part of the orbit path shows where the satellite is in the earth's shadow,  

DLR